| time (UTC) | temp C | wind direction | speed KPH | gust KPH | rain 1hr cm | rain 24hr cm | rain mn cm | humidity % | barometer mb |
| 20260906225904 | 38 | 106 | 4.8 | 4.8 | 0.00 | 0.00 | 0.00 | ||
| 20260906214404 | 39 | 83 | 1.6 | 6.4 | 0.00 | 0.00 | 0.00 | ||
| 20260906213904 | 40 | 70 | 1.6 | 6.4 | 0.00 | 0.00 | 0.00 | ||
| 20260906211904 | 40 | 20 | 3.2 | 6.4 | 0.00 | 0.00 | 0.00 | ||
| 20260906211404 | 40 | 176 | 3.2 | 4.8 | 0.00 | 0.00 | 0.00 | ||
| 20260906203404 | 39 | 4 | 3.2 | 6.4 | 0.00 | 0.00 | 0.00 | ||
| 20260906202904 | 38 | 134 | 3.2 | 3.2 | 0.00 | 0.00 | 0.00 | ||
| 20260906202404 | 38 | 122 | 6.4 | 9.7 | 0.00 | 0.00 | 0.00 | ||
| 20260906201904 | 38 | 66 | 3.2 | 3.2 | 0.00 | 0.00 | 0.00 | ||
| 20260906201405 | 39 | 131 | 4.8 | 8.0 | 0.00 | 0.00 | 0.00 | ||
| 20260906200905 | 39 | 73 | 6.4 | 11.3 | 0.00 | 0.00 | 0.00 | ||
| 20260906200405 | 38 | 37 | 4.8 | 4.8 | 0.00 | 0.00 | 0.00 | ||
| 20260906195405 | 39 | 246 | 3.2 | 8.0 | 0.00 | 0.00 | 0.00 | ||
| 20260906194904 | 39 | 130 | 3.2 | 8.0 | 0.00 | 0.00 | 0.00 | ||
| 20260906194405 | 38 | 72 | 4.8 | 6.4 | 0.00 | 0.00 | 0.00 | ||
| 20260906193905 | 36 | 6 | 6.4 | 6.4 | 0.00 | 0.00 | 0.00 | ||
| 20260906193404 | 38 | 242 | 4.8 | 8.0 | 0.00 | 0.00 | 0.00 | ||
| 20260906192904 | 38 | 134 | 6.4 | 11.3 | 0.00 | 0.00 | 0.00 | ||
| 20260906191404 | 38 | 61 | 4.8 | 4.8 | 0.00 | 0.00 | 0.00 | ||
| 20260906190904 | 38 | 59 | 8.0 | 9.7 | 0.00 | 0.00 | 0.00 | ||
| 20260906190405 | 38 | 127 | 4.8 | 8.0 | 0.00 | 0.00 | 0.00 | ||
| 20260906185904 | 39 | 86 | 3.2 | 8.0 | 0.00 | 0.00 | 0.00 | ||
| 20260906184905 | 38 | 113 | 3.2 | 11.3 | 0.00 | 0.00 | 0.00 | ||
| 20260906184405 | 37 | 124 | 6.4 | 11.3 | 0.00 | 0.00 | 0.00 | ||
| 20260906183905 | 38 | 135 | 8.0 | 11.3 | 0.00 | 0.00 | 0.00 | ||
| 20260906182905 | 38 | 145 | 8.0 | 8.0 | 0.00 | 0.00 | 0.00 | ||
| 20260906182405 | 39 | 75 | 6.4 | 6.4 | 0.00 | 0.00 | 0.00 | ||
| 20260906181905 | 39 | 113 | 3.2 | 11.3 | 0.00 | 0.00 | 0.00 | ||
| 20260906180405 | 38 | 73 | 3.2 | 4.8 | 0.00 | 0.00 | 0.00 | ||
| 20260906175905 | 37 | 86 | 6.4 | 8.0 | 0.00 | 0.00 | 0.00 | ||
| 20260906175405 | 36 | 121 | 6.4 | 16.1 | 0.00 | 0.00 | 0.00 | ||
| 20260906174905 | 36 | 46 | 6.4 | 3.2 | 0.00 | 0.00 | 0.00 | ||
| 20260906174404 | 35 | 252 | 4.8 | 3.2 | 0.00 | 0.00 | 0.00 | ||
| 20260906173905 | 36 | 80 | 8.0 | 12.9 | 0.00 | 0.00 | 0.00 | ||
| 20260906173405 | 37 | 127 | 1.6 | 3.2 | 0.00 | 0.00 | 0.00 | ||
| 20260906172905 | 37 | 258 | 4.8 | 4.8 | 0.00 | 0.00 | 0.00 | ||
| 20260906171905 | 37 | 118 | 3.2 | 8.0 | 0.00 | 0.00 | 0.00 | ||
| 20260906170905 | 36 | 146 | 1.6 | 3.2 | 0.00 | 0.00 | 0.00 | ||
| 20260906170405 | 36 | 141 | 3.2 | 9.7 | 0.00 | 0.00 | 0.00 | ||
| 20260906165905 | 36 | 62 | 3.2 | 3.2 | 0.00 | 0.00 | 0.00 | ||
| 20260906165405 | 36 | 194 | 6.4 | 4.8 | 0.00 | 0.00 | 0.00 | ||
| 20260906164905 | 36 | 206 | 6.4 | 11.3 | 0.00 | 0.00 | 0.00 | ||
| 20260906164405 | 35 | 175 | 1.6 | 1.6 | 0.00 | 0.00 | 0.00 | ||
| 20260906163905 | 36 | 83 | 1.6 | 6.4 | 0.00 | 0.00 | 0.00 | ||
| 20260906163405 | 35 | 61 | 3.2 | 9.7 | 0.00 | 0.00 | 0.00 | ||
| 20260906162905 | 35 | 92 | 4.8 | 6.4 | 0.00 | 0.00 | 0.00 | ||
| 20260906162406 | 35 | 220 | 4.8 | 6.4 | 0.00 | 0.00 | 0.00 | ||
| 20260906161405 | 35 | 82 | 6.4 | 6.4 | 0.00 | 0.00 | 0.00 | ||
| 20260906160905 | 33 | 87 | 1.6 | 3.2 | 0.00 | 0.00 | 0.00 | ||
| 20260906160405 | 33 | 149 | 0.0 | 4.8 | 0.00 | 0.00 | 0.00 | ||
| 20260906155905 | 33 | 44 | 3.2 | 6.4 | 0.00 | 0.00 | 0.00 | ||
| 20260906155405 | 32 | 190 | 6.4 | 8.0 | 0.00 | 0.00 | 0.00 | ||
| 20260906154905 | 32 | 141 | 4.8 | 8.0 | 0.00 | 0.00 | 0.00 | ||
| 20260906154405 | 33 | 256 | 3.2 | 6.4 | 0.00 | 0.00 | 0.00 | ||
| 20260906153906 | 32 | 38 | 1.6 | 3.2 | 0.00 | 0.00 | 0.00 | ||
| 20260906153405 | 32 | 134 | 3.2 | 6.4 | 0.00 | 0.00 | 0.00 | ||
| 20260906152905 | 32 | 179 | 3.2 | 3.2 | 0.00 | 0.00 | 0.00 | ||
| 20260906152406 | 32 | 134 | 0.0 | 6.4 | 0.00 | 0.00 | 0.00 | ||
| 20260906151905 | 31 | 124 | 3.2 | 4.8 | 0.00 | 0.00 | 0.00 | ||
| 20260906150908 | 31 | 59 | 3.2 | 6.4 | 0.00 | 0.00 | 0.00 | ||
| 20260906150406 | 31 | 37 | 0.0 | 0.0 | 0.00 | 0.00 | 0.00 | ||
| 20260906145405 | 30 | 69 | 3.2 | 6.4 | 0.00 | 0.00 | 0.00 | ||
| 20260906143405 | 30 | 321 | 1.6 | 3.2 | 0.00 | 0.00 | 0.00 | ||
| 20260906142905 | 30 | 70 | 3.2 | 3.2 | 0.00 | 0.00 | 0.00 | ||
| 20260906142406 | 29 | 82 | 1.6 | 4.8 | 0.00 | 0.00 | 0.00 | ||
| 20260906141905 | 29 | 62 | 0.0 | 0.0 | 0.00 | 0.00 | 0.00 | ||
| 20260906141405 | 28 | 108 | 3.2 | 4.8 | 0.00 | 0.00 | 0.00 | ||
| 20260906140905 | 28 | 170 | 0.0 | 0.0 | 0.00 | 0.00 | 0.00 | ||
| 20260906140405 | 28 | 155 | 1.6 | 4.8 | 0.00 | 0.00 | 0.00 | ||
| 20260906134907 | 27 | 144 | 0.0 | 0.0 | 0.00 | 0.00 | 0.00 | ||
| 20260906134406 | 27 | 127 | 1.6 | 4.8 | 0.00 | 0.00 | 0.00 | ||
| 20260906133908 | 27 | 73 | 0.0 | 3.2 | 0.00 | 0.00 | 0.00 | ||
| 20260906130405 | 26 | 128 | 1.6 | 0.0 | 0.00 | 0.00 | 0.00 | ||
| 20260906123906 | 25 | 231 | 0.0 | 0.0 | 0.00 | 0.00 | 0.00 | ||
| 20260906121906 | 25 | 231 | 0.0 | 0.0 | 0.00 | 0.00 | 0.00 | ||
| 20260906120907 | 25 | 231 | 0.0 | 0.0 | 0.00 | 0.00 | 0.00 | ||
| 20260906115906 | 25 | 231 | 0.0 | 0.0 | 0.00 | 0.00 | 0.00 | ||
| 20260906115406 | 25 | 231 | 0.0 | 0.0 | 0.00 | 0.00 | 0.00 | ||
| 20260906114406 | 25 | 231 | 0.0 | 0.0 | 0.00 | 0.00 | 0.00 | ||
| 20260906113406 | 25 | 231 | 0.0 | 0.0 | 0.00 | 0.00 | 0.00 | ||
| 20260906111907 | 25 | 231 | 0.0 | 0.0 | 0.00 | 0.00 | 0.00 | ||
| 20260906111406 | 25 | 231 | 0.0 | 0.0 | 0.00 | 0.00 | 0.00 | ||
| 20260906105906 | 25 | 231 | 0.0 | 0.0 | 0.00 | 0.00 | 0.00 | ||
| 20260906103907 | 25 | 231 | 0.0 | 0.0 | 0.00 | 0.00 | 0.00 | ||
| 20260906103406 | 25 | 231 | 0.0 | 0.0 | 0.00 | 0.00 | 0.00 | ||
| 20260906102907 | 25 | 231 | 0.0 | 0.0 | 0.00 | 0.00 | 0.00 | ||
| 20260906101907 | 25 | 231 | 0.0 | 0.0 | 0.00 | 0.00 | 0.00 | ||
| 20260906101407 | 25 | 231 | 0.0 | 0.0 | 0.00 | 0.00 | 0.00 | ||
| 20260906100907 | 25 | 231 | 0.0 | 0.0 | 0.00 | 0.00 | 0.00 | ||
| 20260906093907 | 26 | 231 | 0.0 | 0.0 | 0.00 | 0.00 | 0.00 | ||
| 20260906093408 | 26 | 231 | 0.0 | 0.0 | 0.00 | 0.00 | 0.00 | ||
| 20260906091908 | 26 | 231 | 0.0 | 0.0 | 0.00 | 0.00 | 0.00 | ||
| 20260906091407 | 26 | 231 | 0.0 | 0.0 | 0.00 | 0.00 | 0.00 | ||
| 20260906090907 | 26 | 231 | 0.0 | 0.0 | 0.00 | 0.00 | 0.00 | ||
| 20260906085906 | 26 | 231 | 0.0 | 0.0 | 0.00 | 0.00 | 0.00 | ||
| 20260906083907 | 27 | 231 | 0.0 | 0.0 | 0.00 | 0.00 | 0.00 | ||
| 20260906082407 | 27 | 231 | 0.0 | 0.0 | 0.00 | 0.00 | 0.00 | ||
| 20260906081908 | 27 | 184 | 0.0 | 1.6 | 0.00 | 0.00 | 0.00 | ||
| 20260906081407 | 27 | 214 | 3.2 | 3.2 | 0.00 | 0.00 | 0.00 | ||
| 20260906075907 | 28 | 193 | 1.6 | 3.2 | 0.00 | 0.00 | 0.00 | ||
| 20260906074908 | 28 | 255 | 3.2 | 3.2 | 0.00 | 0.00 | 0.00 | ||
| 20260906074407 | 28 | 245 | 3.2 | 4.8 | 0.00 | 0.00 | 0.00 | ||
| 20260906073907 | 27 | 239 | 0.0 | 0.0 | 0.00 | 0.00 | 0.00 | ||
| 20260906073407 | 28 | 227 | 3.2 | 1.6 | 0.00 | 0.00 | 0.00 | ||
| 20260906072407 | 28 | 90 | 0.0 | 3.2 | 0.00 | 0.00 | 0.00 | ||
| 20260906071907 | 28 | 220 | 0.0 | 1.6 | 0.00 | 0.00 | 0.00 | ||
| 20260906070407 | 28 | 290 | 0.0 | 3.2 | 0.00 | 0.00 | 0.00 | ||
| 20260906065907 | 28 | 62 | 0.0 | 0.0 | 0.00 | 0.00 | 0.00 | ||
| 20260906064907 | 28 | 96 | 3.2 | 1.6 | 0.00 | 0.00 | 0.00 | ||
| 20260906064407 | 28 | 201 | 0.0 | 3.2 | 0.00 | 0.00 | 0.00 | ||
| 20260906062407 | 28 | 201 | 1.6 | 3.2 | 0.00 | 0.00 | 0.00 | ||
| 20260906061407 | 28 | 207 | 3.2 | 4.8 | 0.00 | 0.00 | 0.00 | ||
| 20260906055907 | 28 | 193 | 1.6 | 1.6 | 0.00 | 0.00 | 0.00 | ||
| 20260906055407 | 29 | 225 | 0.0 | 0.0 | 0.00 | 0.00 | 0.00 | ||
| 20260906054907 | 29 | 170 | 1.6 | 3.2 | 0.00 | 0.00 | 0.00 | ||
| 20260906053907 | 28 | 235 | 0.0 | 3.2 | 0.00 | 0.00 | 0.00 | ||
| 20260906051408 | 29 | 245 | 0.0 | 1.6 | 0.00 | 0.00 | 0.00 | ||
| 20260906050908 | 30 | 134 | 1.6 | 3.2 | 0.00 | 0.00 | 0.00 | ||
| 20260906050408 | 29 | 155 | 1.6 | 3.2 | 0.00 | 0.00 | 0.00 | ||
| 20260906045908 | 29 | 132 | 0.0 | 1.6 | 0.00 | 0.00 | 0.00 | ||
| 20260906044908 | 29 | 100 | 0.0 | 3.2 | 0.00 | 0.00 | 0.00 | ||
| 20260906043408 | 30 | 199 | 0.0 | 4.8 | 0.00 | 0.00 | 0.00 | ||
| 20260906041408 | 30 | 148 | 0.0 | 0.0 | 0.00 | 0.00 | 0.00 | ||
| 20260906040911 | 30 | 145 | 0.0 | 0.0 | 0.00 | 0.00 | 0.00 | ||
| 20260906040407 | 30 | 193 | 0.0 | 4.8 | 0.00 | 0.00 | 0.00 | ||
| 20260906035907 | 30 | 142 | 0.0 | 4.8 | 0.00 | 0.00 | 0.00 | ||
| 20260906034907 | 31 | 190 | 3.2 | 1.6 | 0.00 | 0.00 | 0.00 | ||
| 20260906034409 | 31 | 144 | 1.6 | 1.6 | 0.00 | 0.00 | 0.00 | ||
| 20260906033909 | 31 | 184 | 4.8 | 4.8 | 0.00 | 0.00 | 0.00 | ||
| 20260906032409 | 31 | 80 | 3.2 | 8.0 | 0.00 | 0.00 | 0.00 | ||
| 20260906031908 | 31 | 124 | 1.6 | 4.8 | 0.00 | 0.00 | 0.00 | ||
| 20260906030407 | 31 | 177 | 1.6 | 11.3 | 0.00 | 0.00 | 0.00 | ||
| 20260906021408 | 32 | 120 | 4.8 | 8.0 | 0.00 | 0.00 | 0.00 | ||
| 20260906015908 | 32 | 189 | 1.6 | 9.7 | 0.00 | 0.00 | 0.00 | ||
| 20260906015408 | 32 | 82 | 3.2 | 6.4 | 0.00 | 0.00 | 0.00 | ||
| 20260906014911 | 32 | 253 | 6.4 | 3.2 | 0.00 | 0.00 | 0.00 | ||
| 20260906013909 | 32 | 61 | 6.4 | 9.7 | 0.00 | 0.00 | 0.00 | ||
| 20260906013408 | 32 | 127 | 3.2 | 6.4 | 0.00 | 0.00 | 0.00 | ||
| 20260906012408 | 33 | 151 | 8.0 | 9.7 | 0.00 | 0.00 | 0.00 | ||
| 20260906010408 | 35 | 73 | 0.0 | 0.0 | 0.00 | 0.00 | 0.00 | ||
| 20260906005908 | 35 | 48 | 0.0 | 1.6 | 0.00 | 0.00 | 0.00 | ||
| 20260906005408 | 35 | 83 | 0.0 | 3.2 | 0.00 | 0.00 | 0.00 | ||
| 20260905233409 | 37 | 69 | 0.0 | 0.0 | 0.00 | 0.00 | 0.00 | ||
| 20260905231909 | 37 | 56 | 1.6 | 1.6 | 0.00 | 0.00 | 0.00 | ||
| 20260905231409 | 38 | 100 | 3.2 | 6.4 | 0.00 | 0.00 | 0.00 | ||
| 20260905230409 | 37 | 52 | 4.8 | 1.6 | 0.00 | 0.00 | 0.00 |